Cedar Rapids, IA

9:44 AM CST on February 24, 2017 (GMT -0600)
The Eastern Iowa Airport

Weather History for KCID - November, 2013

Change the Weather History Date:

Monday, November 18, 2013

  Actual Average Record
Temperature  
Mean Temperature 34 °F 36 °F  
Max Temperature 42 °F 45 °F 72 °F (1953)
Min Temperature 26 °F 27 °F 3 °F (2014)
Degree Days  
Heating Degree Days 31 29  
Month to date heating degree days 444 442  
Since 1 July heating degree days 971 1052  
Cooling Degree Days 0 0  
Month to date cooling degree days 0 0  
Year to date cooling degree days 884 748  
Moisture  
Dew Point 29 °F    
Average Humidity 73    
Maximum Humidity 89    
Minimum Humidity 57    
Precipitation  
Precipitation 0.00 in 0.07 in 1.18 in (1957)
Month to date precipitation 2.20 1.30  
Year to date precipitation 36.75 32.38  
Sea Level Pressure  
Sea Level Pressure 30.12 in    
Wind  
Wind Speed 13 mph (WNW)    
Max Wind Speed 26 mph    
Max Gust Speed 31 mph    
Visibility 10 miles    
Events      
T = Trace of Precipitation, MM = Missing Value Source: NWS Daily Summary

Daily Weather History Graph

Daily Weather History Graph

Search for Another Location

Airport or City:

Trip Planner

Search our weather history database for the weather conditions in past years. The results will help you decide how hot, cold, wet, or windy it might be!

Date:

Astronomy

Nov. 18, 2013 Rise Set
Actual Time 7:00 AM CST 4:43 PM CST
Civil Twilight 6:30 AM CST 5:13 PM CST
Nautical Twilight 5:56 AM CST 5:47 PM CST
Astronomical Twilight 5:23 AM CST 6:20 PM CST
Moon 5:45 PM CST (11/18) 7:49 AM CST (11/18)
Length of Visible Light 10h 43m
Length of Day
9h 42m
Full, 99% of the Moon is Illuminated
Nov 18
Full
Nov 25
Last Quarter
Dec 2
New
Dec 9
First Quarter
Dec 17
Full

Hourly Weather History & Observations

Time (CST) Temp. Windchill Dew Point Humidity Pressure Visibility Wind Dir Wind Speed Gust Speed Precip Events Conditions
12:52 AM 37.0 °F 29.8 °F 32.0 °F 82% 29.91 in 10.0 mi West 10.4 mph - N/A   Clear
1:52 AM 37.0 °F 29.3 °F 33.1 °F 86% 29.93 in 10.0 mi West 11.5 mph - N/A   Mostly Cloudy
2:52 AM 36.0 °F 27.5 °F 32.0 °F 86% 29.94 in 10.0 mi West 12.7 mph - N/A   Clear
3:28 AM 37.4 °F 28.9 °F 33.8 °F 87% 29.94 in 10.0 mi WNW 13.8 mph - N/A   Mostly Cloudy
3:52 AM 37.0 °F 29.8 °F 33.1 °F 86% 29.96 in 9.0 mi WNW 10.4 mph - N/A   Mostly Cloudy
4:12 AM 37.4 °F 28.9 °F 33.8 °F 87% 29.94 in 10.0 mi WNW 13.8 mph - N/A   Overcast
4:52 AM 37.0 °F 28.1 °F 33.1 °F 86% 29.98 in 10.0 mi WNW 15.0 mph - N/A   Overcast
5:17 AM 37.4 °F 28.5 °F 33.8 °F 87% 29.96 in 10.0 mi WNW 15.0 mph 23.0 mph N/A   Overcast
5:52 AM 36.0 °F 25.6 °F 30.0 °F 79% 30.00 in 10.0 mi NW 18.4 mph 26.5 mph N/A   Mostly Cloudy
6:04 AM 35.6 °F 25.2 °F 28.4 °F 75% 29.99 in 10.0 mi NW 18.4 mph - N/A   Scattered Clouds
6:52 AM 33.1 °F 23.0 °F 28.0 °F 82% 30.05 in 10.0 mi WNW 15.0 mph - N/A   Clear
7:52 AM 34.0 °F 24.2 °F 28.0 °F 79% 30.06 in 10.0 mi WNW 15.0 mph - N/A   Clear
8:52 AM 36.0 °F 26.7 °F 30.0 °F 79% 30.10 in 10.0 mi NW 15.0 mph 24.2 mph N/A   Scattered Clouds
9:47 AM 35.6 °F 24.8 °F 28.4 °F 75% 30.12 in 10.0 mi NW 19.6 mph 26.5 mph N/A   Mostly Cloudy
9:52 AM 36.0 °F 25.0 °F 28.9 °F 76% 30.14 in 10.0 mi NW 20.7 mph 26.5 mph N/A   Mostly Cloudy
10:52 AM 39.0 °F 28.5 °F 30.0 °F 70% 30.17 in 10.0 mi WNW 23.0 mph 29.9 mph N/A   Mostly Cloudy
11:18 AM 37.4 °F 26.6 °F 28.4 °F 70% 30.14 in 10.0 mi WNW 21.9 mph 28.8 mph N/A   Scattered Clouds
11:22 AM 39.2 °F 29.3 °F 28.4 °F 65% 30.14 in 10.0 mi WNW 20.7 mph 28.8 mph N/A   Mostly Cloudy
11:52 AM 39.9 °F 30.2 °F 30.9 °F 70% 30.17 in 10.0 mi West 20.7 mph 25.3 mph N/A   Mostly Cloudy
12:29 PM 41.0 °F 31.6 °F 28.4 °F 61% 30.16 in 10.0 mi WNW 20.7 mph 29.9 mph N/A   Scattered Clouds
12:52 PM 41.0 °F 31.1 °F 28.9 °F 62% 30.18 in 10.0 mi WNW 23.0 mph - N/A   Partly Cloudy
1:52 PM 42.1 °F 33.3 °F 28.9 °F 60% 30.19 in 10.0 mi NW 19.6 mph 26.5 mph N/A   Clear
2:52 PM 42.1 °F 33.3 °F 28.0 °F 58% 30.19 in 10.0 mi WNW 19.6 mph 27.6 mph N/A   Clear
3:52 PM 39.9 °F 32.5 °F 27.0 °F 60% 30.21 in 10.0 mi WNW 12.7 mph 23.0 mph N/A   Clear
4:52 PM 36.0 °F 28.5 °F 27.0 °F 70% 30.23 in 10.0 mi WNW 10.4 mph - N/A   Clear
5:52 PM 32.0 °F 24.2 °F 26.1 °F 79% 30.25 in 10.0 mi West 9.2 mph - N/A   Clear
6:52 PM 32.0 °F 25.6 °F 26.1 °F 79% 30.25 in 10.0 mi WNW 6.9 mph - N/A   Clear
7:52 PM 30.0 °F 24.1 °F 25.0 °F 82% 30.27 in 10.0 mi West 5.8 mph - N/A   Clear
8:52 PM 30.0 °F 25.2 °F 25.0 °F 82% 30.28 in 10.0 mi NW 4.6 mph - N/A   Clear
9:52 PM 30.0 °F 26.5 °F 26.1 °F 85% 30.29 in 10.0 mi North 3.5 mph - N/A   Clear
10:52 PM 28.0 °F 24.2 °F 25.0 °F 88% 30.30 in 9.0 mi NW 3.5 mph - N/A   Clear
11:52 PM 28.0 °F 24.2 °F 25.0 °F 88% 30.31 in 9.0 mi WNW 3.5 mph - N/A   Clear